RH
96 97 97 83 73 82 95 99 94 86 90 99 95 92 68 60 60 72 72 70 71 66 73 70 69 60 62 61 58 51 55 71 68 58 55 49 51 44 50 64 64 66 68 64
95 97 98 93 67 95 98 98 98 98 97 97 92 73 64 67 61 72 73 70 66 67 72 78 74 66 71 68 60 58 58 67 81 82 63 54 59 49 55 56 57 67 78 54
97 96 98 98 69 93 97 98 98 98 98 96 83 68 62 66 66 77 75 72 70 74 84 77 76 73 71 65 60 58 61 61 70 91 78 64 58 56 60 60 77 65 61 57
97 90 84 98 74 94 99 98 98 97 96 96 82 81 66 60 71 77 79 77 70 71 75 80 70 78 76 68 62 62 66 64 67 75 73 70 69 62 59 62 64 60 53 57
88 89 98 98 96 98 98 98 97 94 90 94 93 77 65 57 70 71 75 76 73 76 71 69 71 74 80 69 64 66 65 73 75 91 69 66 70 69 74 65 55 54 52 53
81 86 94 98 97 98 98 98 96 94 95 95 97 69 49 56 75 70 75 77 74 74 70 74 74 74 79 74 64 66 69 69 73 81 66 62 64 59 56 52 50 50 52 48
88 96 95 96 96 97 98 96 97 97 97 97 78 60 52 66 81 73 79 79 78 79 67 68 76 65 68 67 63 63 64 68 76 79 72 85 57 51 48 48 43 44 45 49
79 92 99 98 99 96 96 98 88 93 93 85 87 74 63 81 89 88 85 82 81 78 72 75 75 67 62 58 57 55 53 61 75 82 74 63 53 44 42 38 33 34 39 42
75 87 93 96 98 98 95 91 96 97 90 92 91 82 70 90 96 98 93 91 84 79 80 84 84 76 60 45 45 52 50 56 64 67 65 58 41 37 40 35 34 26 30 29
76 89 95 96 95 98 98 90 94 96 88 90 95 78 76 86 96 96 98 96 94 88 85 91 88 82 68 56 48 52 64 72 78 71 76 56 46 40 37 41 38 31 30 30
78 90 86 85 87 97 96 94 98 86 80 85 91 84 87 92 96 96 96 98 96 96 93 91 83 72 69 63 57 61 61 65 66 62 70 66 44 44 41 41 38 35 32 31
85 94 92 90 85 90 89 97 97 92 79 84 77 73 89 95 95 95 95 92 88 92 85 78 79 74 70 66 73 64 66 55 56 52 51 44 41 41 38 41 40 40 34 33
93 94 94 95 94 98 94 85 95 97 79 81 88 86 91 93 99 98 95 96 91 84 81 82 79 72 66 72 67 64 62 60 57 55 49 50 46 44 42 39 39 37 38 37
97 97 94 98 98 98 97 92 85 92 87 78 78 80 94 94 90 97 97 96 94 91 89 90 83 80 68 72 69 67 67 61 56 52 51 52 51 46 45 47 44 39 37 36
95 95 96 96 96 98 98 99 98 91 78 75 78 83 94 94 94 93 96 94 93 94 94 91 90 84 75 75 72 66 60 58 56 52 49 53 54 54 53 50 48 46 38 37
95 92 98 94 97 96 99 98 99 93 84 78 88 89 95 96 97 93 98 94 95 93 91 89 84 78 72 74 68 61 64 62 58 57 54 50 50 49 47 44 44 42 39 36
94 98 94 98 97 98 98 98 96 98 84 79 89 98 98 98 97 96 97 97 95 92 91 88 82 82 78 75 67 65 62 58 57 55 54 50 50 47 44 44 42 39 37 38
93 92 93 94 98 99 91 86 93 93 97 87 91 96 99 98 98 98 97 96 96 96 96 92 88 88 83 71 59 58 53 52 51 49 47 47 47 46 43 40 37 33 34 34
91 88 83 89 93 92 90 94 99 99 98 93 89 92 93 98 98 97 98 97 98 93 93 91 85 84 73 56 54 52 50 48 46 44 42 41 40 38 37 32 30 28 26 24
86 90 92 91 87 90 97 98 98 98 99 97 87 77 77 86 92 96 96 93 94 90 88 82 77 70 67 60 54 51 46 42 40 37 36 36 37 33 30 27 24 20 20 19
87 93 87 92 93 98 99 98 99 98 95 93 88 82 74 77 82 86 86 91 89 88 83 80 70 51 45 45 47 39 37 36 33 33 32 33 31 30 24 21 19 17 16 16
83 95 92 97 97 98 98 98 98 98 98 91 81 80 76 83 84 89 86 86 85 82 72 74 63 40 37 36 33 34 38 34 32 31 31 30 24 21 20 19 17 15 15 15
91 98 98 98 98 98 97 97 97 96 83 77 70 72 75 84 85 85 79 87 90 79 80 68 46 36 34 32 34 39 37 35 33 30 25 21 20 18 15 16 17 16 16 16
98 97 98 98 97 95 84 76 68 61 62 64 69 71 79 81 85 85 81 81 80 78 65 44 39 34 36 36 36 37 36 30 24 21 20 18 16 17 18 16 16 17 18 19
99 95 95 94 96 88 78 84 74 71 76 75 82 81 79 82 84 76 73 76 71 56 42 40 37 37 37 37 35 32 26 21 17 17 18 18 19 18 18 19 17 16 18 19
99 92 92 92 91 87 87 80 74 75 74 80 74 78 82 75 69 64 65 58 48 39 36 35 33 31 29 29 26 20 18 17 17 19 22 22 21 20 20 18 15 15 18 20
88 87 91 95 97 94 90 81 71 71 69 71 73 77 72 62 57 52 45 42 37 33 32 31 28 26 25 23 20 19 18 19 21 22 24 25 24 22 18 17 20 22 25 28